Regional Weather Roundup
Issued by NWS Cleveland, OH

Home | Current Version | Previous Version | Text Only | Print | Product List | Glossary On
Versions: 1 2 3 4 5 6 7 8 9 10 11 12 13 14 15 16 17 18 19 20 21 22 23 24 25 26 27 28 29 30 31 32 33 34 35 36 37 38 39 40 41 42 43 44 45 46 47 48 49 50
000
ASUS41 KCLE 201802
RWRCLE
OHIO REGIONAL WEATHER ROUNDUP
NATIONAL WEATHER SERVICE CLEVELAND, OH
200 PM EDT SAT SEP 20 2014

NOTE: "FAIR" INDICATES FEW OR NO CLOUDS BELOW 12,000 FEET WITH NO
SIGNIFICANT WEATHER AND/OR OBSTRUCTIONS TO VISIBILITY.

OHZ001>008-015>018-024>027-034-035-043-044-201900-
   NORTHWEST OHIO

CITY           SKY/WX    TMP DP  RH WIND       PRES   REMARKS
DEFIANCE       SUNNY     79  59  50 SW15G26   29.92F
FINDLAY        SUNNY     80  59  48 SW15G31   29.94F
TOLEDO EXPRESS SUNNY     78  59  51 SW13G24   29.90F
TOLEDO EXEC    SUNNY     80  57  45 SW16G32   29.91F
LIMA           MOSUNNY   79  59  50 SW16G25   29.97F
$$

OHZ009>014-019>023-028>033-038-089-201900-
   NORTHEAST OHIO

CITY           SKY/WX    TMP DP  RH WIND       PRES   REMARKS
CLE-HOPKINS    MOSUNNY   77  62  59 SW13G24   29.98F
CLE-LAKEFRONT  MOSUNNY   77  61  57 S15G23    29.95F
CUY CO. ARPT   PTSUNNY   77  63  61 SW16G23   29.98F
LORAIN-ELYRIA  MOSUNNY   81  60  48 SW21G30   29.97F
ASHTABULA      PTSUNNY   75  62  64 SW12G24   30.00F
AKRON-CANTON   CLOUDY    76  61  59 S20G25    30.02F
WOOSTER        PTSUNNY   77  62  59 SW15      30.01F
MANSFIELD      PTSUNNY   76  62  62 SW12G23   30.01F
YOUNGSTOWN     CLOUDY    74  61  63 S13       30.02F
$$

OHZ042-051>053-060>062-070>072-077>081-201900-
  SOUTHWEST OHIO

CITY           SKY/WX    TMP DP  RH WIND       PRES   REMARKS
CINC-COVINGTON PTSUNNY   78  66  66 SW10      30.05F
CINC-LUNKEN    PTSUNNY   79  66  64 S12       30.05F
HAMILTON       PTSUNNY   80  66  62 SW6       30.04F
DAYTON         CLOUDY    79  61  53 SW16G28   30.02F
WRIGHT-PAT AFB PTSUNNY   78  64  60 SW14      30.02F
DAYTON GENERAL PTSUNNY   77  63  61 SW13G22   30.03F
WILMINGTON     PTSUNNY   78  64  61 SW16      30.04F
$$

OHZ036-037-039>041-045>050-054>059-063>069-073>076-082>088-201900-
  CENTRAL AND SOUTHEAST OHIO

CITY           SKY/WX    TMP DP  RH WIND       PRES   REMARKS
COLUMBUS       CLOUDY    82  62  50 SW13      30.02F
OSU AIRPORT    PTSUNNY   79  63  57 SW17G23   30.02F
BOLTON FIELD   PTSUNNY   77  64  65 SW15G22   30.04F
RICKENBACK AFB PTSUNNY   78  63  60 SW13      30.03F
NEWARK         PTSUNNY   78  63  59 SW12      30.04F
MARION         PTSUNNY   78  59  51 SW16G29   30.00F
LANCASTER      PTSUNNY   79  62  56 SW14      30.05F
ZANESVILLE     PTSUNNY   77  61  57 S12G18    30.06F
NEW PHILLY     PTSUNNY   75  63  66 S6        30.05F
$$


USA.gov is the U.S. government's official web portal to all federal, state and local government web resources and services.